Weather Roundup
Issued by NWS Corpus Christi, TX

Home | Current Version | Previous Version | Text Only | Print | Product List | Glossary On
Versions: 1 2 3 4 5 6 7 8 9 10 11 12 13 14 15 16 17 18 19 20 21 22 23 24 25 26 27 28 29 30 31 32 33 34 35 36 37 38 39 40 41 42 43 44 45 46 47 48 49 50
000
ASUS44 KCRP 280810
HRRCRP

SOUTH TEXAS REGIONAL WEATHER ROUNDUP
NATIONAL WEATHER SERVICE CORPUS CHRISTI TX
200 AM CST TUE FEB 28 2017


TXZ229>244-280900-
...CORPUS CHRISTI AREA OBSERVATIONS...

CITY           SKY/WX    TMP DP  RH WIND       PRES   REMARKS
CORPUS CHRISTI CLOUDY    73  72  96 S16       29.93S
NAS CORPUS CHR CLOUDY    72  72 100 SE16      29.93S FOG
ROCKPORT       CLOUDY    73  70  90 S6        29.93F FOG
KINGSVILLE NAS CLOUDY    76  73  91 S13       29.91F FOG
ALICE          CLOUDY    73  71  93 SE8       29.90F FOG
ORANGE GROVE   CLOUDY    73  73 100 SE12      29.91F FOG
FALFURRIAS     CLOUDY    76  70  80 SE12G17   29.91S
$$

...VICTORIA AREA OBSERVATIONS...

CITY           SKY/WX    TMP DP  RH WIND       PRES   REMARKS
VICTORIA       CLOUDY    74  71  91 S12       29.95S FOG
BEEVILLE       CLOUDY    66  66 100 SE13      29.92S FOG
PLEASANTON     CLOUDY    71  68  90 SE9       29.92S
SAN ANTONIO    CLOUDY    69  67  93 SE9       29.94F
$$

...LAREDO AREA OBSERVATIONS...

CITY           SKY/WX    TMP DP  RH WIND       PRES   REMARKS
LAREDO         PTCLDY    71  68  90 SE9       29.88F
COTULLA        CLOUDY    72  68  87 SE14      29.89S FOG
DEL RIO        CLEAR     65  61  87 E8        29.89R
MCALLEN        CLOUDY    77  70  79 SE15      29.90F HAZE
HEBBRONVILLE   CLOUDY    73  67  82 S10G16    29.91F
$$

...OTHER TEXAS OBSERVATIONS...

CITY           SKY/WX    TMP DP  RH WIND       PRES   REMARKS
BROWNSVILLE    CLEAR     74  71  91 S14       29.92F
HOUSTON        CLOUDY    74  69  85 S8        29.98S
COL. STATION   CLOUDY    71  69  93 S10       29.95S
AUSTIN         CLOUDY    72  67  84 S9        29.93S
WACO           CLOUDY    69  65  86 S14       29.92S
FORT WORTH     MOCLDY    70  66  87 S15       29.87S
WICHITA FALLS  MOCLDY    66  58  75 S16       29.82S
LUBBOCK        CLOUDY    61  22  22 SW12      29.84F
EL PASO        CLOUDY    61  25  25 S9        29.94S
$$

...MARINE OBSERVATIONS...

STATION/POSITION TIME  SKY/WX   TEMP    WIND        PRES    VSBY  WAVE   SWELL
                                AIR SEA DIR/SP/G                  HT/PER HT/PER
                 (UTC)          (F)     (DEG/KT/KT) (MB)    (MI)  (FT/S) (FT/S)
PORT ARANSAS     0800            70 69  140/ 12/ 13 1013.5F
BUOY 90 E PORT A 0650            72 69  140/ 12/ 14 1015.1          5/ 7   3/ 7
BUOY 45 SE BAFFI 0650            75     160/ 16/ 17 1013.2          5/ 7   2/14
BUOY 200 E PT IS 0650            75 74  140/ 17/ 19 1016.2          6/ 8
BUOY 15 E GALVES 0650            69 67  150/ 17/ 19 1015.3          4/ 7   2/ 8
$$




USA.gov is the U.S. government's official web portal to all federal, state and local government web resources and services.